Wink, TX

11:57 AM CDT on June 29, 2017 (GMT -0500)
Winkler County

Weather History for KINK - March, 2013

Change the Weather History Date:

Saturday, March 30, 2013

  Actual Average Record
Temperature  
Mean Temperature 66 °F -  
Max Temperature 87 °F 73 °F 95 °F (2008)
Min Temperature 46 °F 42 °F 18 °F (1987)
Cooling Degree Days 2    
Growing Degree Days 16 (Base 50)    
Moisture  
Dew Point 42 °F    
Average Humidity 59    
Maximum Humidity 100    
Minimum Humidity 8    
Precipitation  
Precipitation 0.00 in - - ()
Sea Level Pressure  
Sea Level Pressure 29.91 in    
Wind  
Wind Speed 7 mph (West)    
Max Wind Speed 17 mph    
Max Gust Speed 26 mph    
Visibility 7 miles    
Events Fog    
Averages and records for this station are not official NWS values.
T = Trace of Precipitation, MM = Missing Value Source: NWS Daily Summary

Daily Weather History Graph

Daily Weather History Graph

Search for Another Location

Airport or City:

Trip Planner

Search our weather history database for the weather conditions in past years. The results will help you decide how hot, cold, wet, or windy it might be!

Date:

Astronomy

Mar. 30, 2013 Rise Set
Actual Time 7:43 AM CDT 8:11 PM CDT
Civil Twilight 7:18 AM CDT 8:35 PM CDT
Nautical Twilight 6:50 AM CDT 9:04 PM CDT
Astronomical Twilight 6:21 AM CDT 9:33 PM CDT
Moon No Moon Rise 9:54 AM CDT (3/30)
Length of Visible Light 13h 16m
Length of Day
12h 27m
Waning Gibbous, 86% of the Moon is Illuminated
Mar 30
Waning Gibbous
Apr 2
Last Quarter
Apr 10
New
Apr 18
First Quarter
Apr 25
Full

Hourly Weather History & Observations

Time (CDT) Temp. Windchill Dew Point Humidity Pressure Visibility Wind Dir Wind Speed Gust Speed Precip Events Conditions
12:53 AM 62.1 °F - 54.0 °F 75% 29.92 in 9.0 mi SE 17.3 mph 23.0 mph N/A   Clear
1:53 AM 61.0 °F - 55.0 °F 81% 29.91 in 10.0 mi SE 12.7 mph - N/A   Clear
2:53 AM 59.0 °F - 55.0 °F 87% 29.91 in 9.0 mi SE 11.5 mph - N/A   Clear
3:53 AM 55.9 °F - 53.1 °F 90% 29.91 in 8.0 mi South 4.6 mph - N/A   Clear
4:53 AM 55.9 °F - 53.1 °F 90% 29.90 in 9.0 mi East 4.6 mph - N/A   Clear
5:53 AM 54.0 °F - 53.1 °F 97% 29.90 in 7.0 mi Calm Calm - N/A   Clear
6:51 AM 48.2 °F - 46.4 °F 93% 30.01 in 3.0 mi North 5.8 mph - N/A   Scattered Clouds
6:53 AM 48.0 °F - 46.0 °F 93% 29.91 in 2.5 mi North 5.8 mph - N/A   Mostly Cloudy
7:06 AM 46.4 °F 44.3 °F 46.4 °F 100% 30.01 in 0.8 mi North 4.6 mph - N/A   Mist
7:16 AM 46.4 °F 43.5 °F 46.4 °F 100% 30.02 in 0.2 mi NW 5.8 mph - N/A Fog Fog
7:53 AM 46.0 °F 42.5 °F 46.0 °F 100% 29.94 in 0.2 mi North 6.9 mph - N/A Fog Fog
8:53 AM 50.0 °F - 50.0 °F 100% 29.96 in 0.2 mi North 4.6 mph - N/A Fog Fog
9:53 AM 54.0 °F - 53.1 °F 97% 29.97 in 0.2 mi NNW 3.5 mph - N/A Fog Fog
10:08 AM 55.4 °F - 53.6 °F 94% 30.05 in 1.0 mi NW 3.5 mph - N/A   Overcast
10:14 AM 55.4 °F - 53.6 °F 94% 30.06 in 3.0 mi West 3.5 mph - N/A   Overcast
10:37 AM 57.2 °F - 55.4 °F 94% 30.05 in 7.0 mi Calm Calm - N/A   Scattered Clouds
10:53 AM 62.1 °F - 55.0 °F 78% 29.96 in 9.0 mi Calm Calm - N/A   Clear
11:53 AM 71.1 °F - 54.0 °F 55% 29.94 in 10.0 mi Calm Calm - N/A   Clear
12:53 PM 77.0 °F - 46.9 °F 34% 29.91 in 10.0 mi Calm Calm - N/A   Clear
1:53 PM 84.0 °F - 34.0 °F 17% 29.88 in 10.0 mi East 4.6 mph - N/A   Clear
2:53 PM 84.0 °F - 33.1 °F 16% 29.86 in 10.0 mi SSW 4.6 mph - N/A   Clear
3:53 PM 84.0 °F - 32.0 °F 15% 29.84 in 10.0 mi South 3.5 mph 16.1 mph N/A   Clear
4:53 PM 84.9 °F - 25.0 °F 11% 29.81 in 10.0 mi West 6.9 mph - N/A   Clear
5:53 PM 87.1 °F - 19.9 °F 8% 29.79 in 10.0 mi WSW 8.1 mph - N/A   Clear
6:53 PM 84.9 °F - 19.0 °F 9% 29.79 in 10.0 mi Variable 4.6 mph - N/A   Clear
7:53 PM 82.9 °F - 18.0 °F 9% 29.79 in 10.0 mi Calm Calm - N/A   Clear
8:53 PM 75.9 °F - 21.0 °F 13% 29.81 in 10.0 mi ESE 3.5 mph - N/A   Clear
9:53 PM 81.0 °F - 19.0 °F 10% 29.82 in 10.0 mi West 11.5 mph - N/A   Clear
10:53 PM 81.0 °F - 23.0 °F 12% 29.82 in 10.0 mi South 4.6 mph - N/A   Clear
11:53 PM 80.1 °F - 25.0 °F 13% 29.82 in 10.0 mi SW 8.1 mph 26.5 mph N/A   Partly Cloudy